| time (UTC) | temp F | wind direction | speed knots | gust knots | rain 1hr in | rain 24hr in | rain mn in | humidity % | barometer mb |
| 20260506231528 | 44 | 96 | 0.0 | 0.9 | 0.01 | 0.49 | 0.48 | 91 | 1008.5 |
| 20260506231011 | 45 | 97 | 0.0 | 0.9 | 0.01 | 0.49 | 0.48 | 91 | 1008.3 |
| 20260506230511 | 45 | 96 | 0.0 | 0.9 | 0.01 | 0.49 | 0.48 | 91 | 1008.1 |
| 20260506230030 | 45 | 97 | 0.0 | 0.9 | 0.01 | 0.49 | 0.48 | 91 | 1008.1 |
| 20260506225507 | 45 | 117 | 0.0 | 0.9 | 0.01 | 0.49 | 0.48 | 91 | 1008.2 |
| 20260506225007 | 45 | 117 | 0.0 | 0.9 | 0.01 | 0.49 | 0.48 | 91 | 1008.2 |
| 20260506224517 | 45 | 359 | 0.0 | 0.0 | 0.00 | 0.48 | 0.47 | 91 | 1008.2 |
| 20260506224006 | 45 | 349 | 0.0 | 0.9 | 0.00 | 0.48 | 0.47 | 91 | 1008.3 |
| 20260506223506 | 45 | 297 | 0.0 | 0.9 | 0.00 | 0.48 | 0.47 | 91 | 1008.6 |
| 20260506223024 | 45 | 297 | 0.0 | 2.6 | 0.00 | 0.48 | 0.47 | 91 | 1008.6 |
| 20260506222510 | 45 | 75 | 0.0 | 2.6 | 0.00 | 0.48 | 0.47 | 91 | 1008.6 |
| 20260506222009 | 45 | 92 | 0.0 | 2.6 | 0.00 | 0.48 | 0.47 | 91 | 1008.6 |
| 20260506221524 | 45 | 73 | 0.0 | 1.7 | 0.00 | 0.48 | 0.47 | 91 | 1008.6 |
| 20260506221008 | 45 | 72 | 0.0 | 1.7 | 0.00 | 0.48 | 0.47 | 91 | 1008.5 |
| 20260506220507 | 45 | 108 | 0.0 | 0.9 | 0.00 | 0.48 | 0.47 | 91 | 1008.6 |
| 20260506220010 | 45 | 117 | 0.0 | 0.9 | 0.00 | 0.48 | 0.47 | 91 | 1008.6 |
| 20260506215505 | 45 | 116 | 0.0 | 0.9 | 0.00 | 0.48 | 0.47 | 91 | 1008.6 |
| 20260506215008 | 45 | 117 | 0.0 | 0.9 | 0.00 | 0.48 | 0.47 | 91 | 1008.6 |
| 20260506214518 | 45 | 72 | 0.0 | 1.7 | 0.00 | 0.48 | 0.47 | 91 | 1008.5 |
| 20260506214006 | 45 | 77 | 0.0 | 1.7 | 0.00 | 0.48 | 0.47 | 91 | 1008.4 |
| 20260506213510 | 45 | 76 | 0.0 | 1.7 | 0.00 | 0.48 | 0.47 | 91 | 1008.5 |
| 20260506213020 | 45 | 102 | 0.0 | 3.5 | 0.00 | 0.48 | 0.47 | 91 | 1008.2 |
| 20260506212508 | 45 | 84 | 0.9 | 3.5 | 0.00 | 0.48 | 0.47 | 90 | 1008.3 |
| 20260506212010 | 45 | 350 | 0.0 | 3.5 | 0.01 | 0.48 | 0.47 | 91 | 1008.3 |
| 20260506211538 | 45 | 30 | 1.7 | 3.5 | 0.01 | 0.48 | 0.47 | 90 | 1008.3 |
| 20260506211009 | 45 | 39 | 0.0 | 3.5 | 0.01 | 0.48 | 0.47 | 91 | 1008.3 |
| 20260506210508 | 45 | 129 | 0.0 | 2.6 | 0.01 | 0.48 | 0.47 | 91 | 1008.2 |
| 20260506210034 | 45 | 306 | 0.0 | 3.5 | 0.01 | 0.48 | 0.47 | 92 | 1008.1 |
| 20260506205510 | 45 | 74 | 0.9 | 3.5 | 0.01 | 0.48 | 0.47 | 92 | 1008.2 |
| 20260506205005 | 45 | 86 | 0.0 | 2.6 | 0.02 | 0.48 | 0.47 | 92 | 1008.3 |
| 20260506204516 | 45 | 271 | 0.0 | 2.6 | 0.02 | 0.48 | 0.47 | 92 | 1008.5 |
| 20260506204007 | 44 | 68 | 0.0 | 1.7 | 0.02 | 0.48 | 0.47 | 92 | 1008.6 |
| 20260506203508 | 44 | 107 | 0.0 | 1.7 | 0.02 | 0.48 | 0.47 | 92 | 1008.6 |
| 20260506203017 | 45 | 338 | 0.0 | 0.9 | 0.02 | 0.48 | 0.47 | 92 | 1008.5 |
| 20260506202507 | 45 | 75 | 0.0 | 1.7 | 0.02 | 0.48 | 0.47 | 92 | 1008.5 |
| 20260506202012 | 45 | 74 | 0.0 | 1.7 | 0.01 | 0.47 | 0.46 | 92 | 1008.4 |
| 20260506201527 | 45 | 88 | 0.0 | 2.6 | 0.01 | 0.47 | 0.46 | 92 | 1008.4 |
| 20260506201009 | 44 | 11 | 0.0 | 2.6 | 0.02 | 0.47 | 0.46 | 92 | 1008.4 |
| 20260506200508 | 44 | 1 | 0.0 | 2.6 | 0.02 | 0.47 | 0.46 | 91 | 1008.5 |
| 20260506200031 | 45 | 108 | 0.0 | 4.3 | 0.02 | 0.47 | 0.46 | 91 | 1008.4 |
| 20260506195511 | 45 | 100 | 0.0 | 4.3 | 0.02 | 0.47 | 0.46 | 91 | 1008.4 |
| 20260506195010 | 45 | 86 | 0.0 | 0.0 | 0.01 | 0.47 | 0.45 | 91 | 1008.4 |
| 20260506194526 | 45 | 49 | 0.0 | 0.9 | 0.01 | 0.47 | 0.45 | 91 | 1008.3 |
| 20260506194012 | 45 | 62 | 0.0 | 0.9 | 0.01 | 0.47 | 0.45 | 91 | 1008.5 |
| 20260506193504 | 45 | 354 | 0.0 | 0.9 | 0.01 | 0.47 | 0.45 | 91 | 1008.4 |
| 20260506193020 | 45 | 84 | 0.0 | 0.9 | 0.01 | 0.47 | 0.45 | 91 | 1008.2 |
| 20260506192510 | 45 | 60 | 0.0 | 1.7 | 0.01 | 0.47 | 0.45 | 91 | 1008.1 |
| 20260506192008 | 45 | 347 | 0.0 | 1.7 | 0.01 | 0.47 | 0.45 | 92 | 1008.1 |
| 20260506191519 | 45 | 293 | 0.0 | 0.9 | 0.02 | 0.47 | 0.45 | 92 | 1008.1 |
| 20260506191006 | 45 | 293 | 0.0 | 0.9 | 0.01 | 0.46 | 0.44 | 92 | 1008.0 |
| 20260506190508 | 45 | 212 | 0.0 | 0.9 | 0.01 | 0.46 | 0.44 | 92 | 1008.1 |
| 20260506190024 | 45 | 53 | 0.0 | 2.6 | 0.01 | 0.46 | 0.44 | 92 | 1008.1 |
| 20260506185511 | 44 | 55 | 0.0 | 2.6 | 0.01 | 0.46 | 0.44 | 92 | 1008.2 |
| 20260506185011 | 44 | 127 | 0.0 | 2.6 | 0.01 | 0.47 | 0.44 | 92 | 1008.2 |
| 20260506184531 | 44 | 281 | 0.0 | 1.7 | 0.01 | 0.47 | 0.44 | 92 | 1008.3 |
| 20260506184011 | 44 | 320 | 0.0 | 1.7 | 0.01 | 0.47 | 0.44 | 92 | 1008.3 |
| 20260506183509 | 44 | 323 | 0.0 | 1.7 | 0.01 | 0.47 | 0.44 | 92 | 1008.4 |
| 20260506183027 | 44 | 79 | 0.0 | 0.9 | 0.01 | 0.47 | 0.44 | 92 | 1008.5 |
| 20260506182507 | 44 | 84 | 0.0 | 0.9 | 0.02 | 0.48 | 0.44 | 92 | 1008.6 |
| 20260506182009 | 44 | 84 | 0.0 | 0.9 | 0.02 | 0.51 | 0.44 | 92 | 1008.8 |
| 20260506181534 | 44 | 84 | 0.0 | 2.6 | 0.01 | 0.52 | 0.43 | 92 | 1008.6 |
| 20260506181010 | 44 | 347 | 0.0 | 2.6 | 0.01 | 0.52 | 0.43 | 92 | 1008.8 |
| 20260506180506 | 44 | 107 | 0.0 | 1.7 | 0.01 | 0.52 | 0.43 | 92 | 1008.8 |
| 20260506180021 | 44 | 95 | 0.0 | 0.9 | 0.02 | 0.52 | 0.43 | 92 | 1008.8 |
| 20260506175514 | 44 | 330 | 0.0 | 0.9 | 0.02 | 0.52 | 0.43 | 92 | 1009.0 |
| 20260506175009 | 44 | 97 | 0.0 | 1.7 | 0.02 | 0.52 | 0.43 | 92 | 1008.9 |
| 20260506174523 | 44 | 255 | 0.0 | 1.7 | 0.03 | 0.52 | 0.43 | 92 | 1008.9 |
| 20260506174012 | 44 | 3 | 0.0 | 1.7 | 0.03 | 0.52 | 0.43 | 92 | 1009.2 |
| 20260506173514 | 44 | 106 | 0.0 | 1.7 | 0.04 | 0.52 | 0.43 | 92 | 1009.1 |
| 20260506173047 | 44 | 85 | 0.0 | 1.7 | 0.04 | 0.52 | 0.43 | 92 | 1009.4 |
| 20260506172509 | 44 | 95 | 0.0 | 2.6 | 0.03 | 0.51 | 0.42 | 92 | 1009.2 |
| 20260506172011 | 44 | 139 | 0.0 | 2.6 | 0.04 | 0.51 | 0.42 | 92 | 1009.3 |
| 20260506171537 | 44 | 95 | 0.0 | 2.6 | 0.04 | 0.51 | 0.42 | 92 | 1009.1 |
| 20260506171011 | 44 | 78 | 0.0 | 1.7 | 0.05 | 0.51 | 0.42 | 92 | 1009.3 |
| 20260506170508 | 44 | 58 | 0.0 | 1.7 | 0.06 | 0.51 | 0.42 | 92 | 1009.3 |
| 20260506170020 | 43 | 308 | 0.0 | 2.6 | 0.06 | 0.50 | 0.41 | 92 | 1009.2 |
| 20260506165512 | 43 | 343 | 0.9 | 2.6 | 0.06 | 0.50 | 0.41 | 92 | 1009.0 |
| 20260506165009 | 43 | 58 | 0.0 | 4.3 | 0.07 | 0.50 | 0.41 | 92 | 1009.0 |
| 20260506164522 | 43 | 58 | 0.9 | 4.3 | 0.07 | 0.49 | 0.40 | 92 | 1009.1 |
| 20260506164015 | 43 | 77 | 0.9 | 3.5 | 0.08 | 0.49 | 0.40 | 92 | 1009.4 |
| 20260506163509 | 43 | 69 | 0.0 | 3.5 | 0.08 | 0.48 | 0.39 | 92 | 1009.5 |
| 20260506163029 | 43 | 77 | 0.0 | 3.5 | 0.08 | 0.48 | 0.39 | 93 | 1009.5 |
| 20260506162509 | 43 | 355 | 0.0 | 1.7 | 0.09 | 0.48 | 0.39 | 92 | 1009.5 |
| 20260506162015 | 43 | 80 | 0.0 | 3.5 | 0.09 | 0.47 | 0.38 | 92 | 1009.6 |
| 20260506161528 | 43 | 193 | 0.0 | 3.5 | 0.10 | 0.47 | 0.38 | 92 | 1009.6 |
| 20260506161013 | 43 | 264 | 0.0 | 4.3 | 0.10 | 0.46 | 0.37 | 92 | 1009.6 |
| 20260506160511 | 43 | 82 | 0.0 | 4.3 | 0.10 | 0.45 | 0.36 | 92 | 1009.6 |
| 20260506160029 | 43 | 290 | 0.0 | 0.9 | 0.09 | 0.44 | 0.35 | 92 | 1009.7 |
| 20260506155512 | 43 | 51 | 0.0 | 2.6 | 0.10 | 0.44 | 0.35 | 92 | 1009.7 |
| 20260506155006 | 43 | 7 | 0.0 | 3.5 | 0.10 | 0.43 | 0.34 | 92 | 1009.7 |
| 20260506154522 | 43 | 60 | 0.0 | 3.5 | 0.09 | 0.42 | 0.33 | 92 | 1009.7 |
| 20260506154007 | 43 | 345 | 0.0 | 3.5 | 0.09 | 0.41 | 0.32 | 92 | 1009.8 |
| 20260506153508 | 43 | 89 | 0.0 | 3.5 | 0.08 | 0.40 | 0.31 | 92 | 1009.8 |
| 20260506153026 | 43 | 70 | 0.0 | 1.7 | 0.09 | 0.40 | 0.31 | 92 | 1009.9 |
| 20260506152510 | 43 | 297 | 0.0 | 2.6 | 0.08 | 0.39 | 0.30 | 92 | 1010.0 |
| 20260506152010 | 43 | 332 | 0.0 | 3.5 | 0.08 | 0.38 | 0.29 | 92 | 1010.0 |
| 20260506151524 | 43 | 84 | 0.0 | 3.5 | 0.07 | 0.37 | 0.28 | 92 | 1009.8 |
| 20260506151010 | 43 | 345 | 0.0 | 3.5 | 0.06 | 0.36 | 0.27 | 91 | 1009.9 |
| 20260506150510 | 43 | 39 | 0.9 | 3.5 | 0.06 | 0.35 | 0.26 | 91 | 1010.0 |
| 20260506150028 | 43 | 351 | 0.0 | 1.7 | 0.06 | 0.35 | 0.26 | 91 | 1009.6 |
| 20260506145508 | 43 | 301 | 0.0 | 3.5 | 0.05 | 0.34 | 0.25 | 91 | 1009.7 |
| 20260506145012 | 43 | 64 | 0.0 | 3.5 | 0.05 | 0.33 | 0.24 | 91 | 1009.6 |
| 20260506144532 | 43 | 97 | 0.9 | 2.6 | 0.05 | 0.33 | 0.24 | 91 | 1009.5 |
| 20260506144010 | 44 | 64 | 0.0 | 1.7 | 0.05 | 0.32 | 0.23 | 91 | 1009.4 |
| 20260506143509 | 43 | 84 | 0.0 | 3.5 | 0.05 | 0.32 | 0.23 | 91 | 1009.6 |
| 20260506143026 | 44 | 97 | 0.9 | 5.2 | 0.04 | 0.31 | 0.22 | 91 | 1009.6 |
| 20260506142511 | 44 | 354 | 0.9 | 5.2 | 0.04 | 0.31 | 0.22 | 91 | 1009.6 |
| 20260506142013 | 44 | 31 | 0.0 | 2.6 | 0.03 | 0.30 | 0.21 | 91 | 1009.5 |
| 20260506141524 | 44 | 11 | 0.0 | 3.5 | 0.04 | 0.30 | 0.21 | 91 | 1009.4 |
| 20260506141009 | 44 | 19 | 0.0 | 3.5 | 0.04 | 0.30 | 0.21 | 91 | 1009.7 |
| 20260506140509 | 44 | 33 | 0.0 | 2.6 | 0.03 | 0.29 | 0.20 | 91 | 1009.8 |
| 20260506140030 | 44 | 80 | 0.0 | 0.9 | 0.03 | 0.29 | 0.20 | 91 | 1009.6 |
| 20260506135507 | 44 | 13 | 0.0 | 1.7 | 0.03 | 0.29 | 0.20 | 90 | 1009.7 |
| 20260506135010 | 44 | 49 | 0.0 | 1.7 | 0.03 | 0.28 | 0.19 | 90 | 1009.6 |
| 20260506134528 | 44 | 18 | 0.0 | 2.6 | 0.03 | 0.28 | 0.19 | 90 | 1009.5 |
| 20260506134017 | 44 | 55 | 0.0 | 2.6 | 0.03 | 0.27 | 0.18 | 90 | 1009.6 |
| 20260506133515 | 44 | 51 | 0.0 | 1.7 | 0.03 | 0.27 | 0.18 | 90 | 1009.6 |
| 20260506133025 | 44 | 319 | 0.0 | 1.7 | 0.04 | 0.27 | 0.18 | 90 | 1009.6 |
| 20260506132510 | 44 | 342 | 0.0 | 1.7 | 0.04 | 0.27 | 0.18 | 90 | 1009.6 |
| 20260506132012 | 45 | 75 | 0.0 | 1.7 | 0.05 | 0.27 | 0.18 | 90 | 1009.5 |
| 20260506131524 | 45 | 70 | 0.0 | 2.6 | 0.04 | 0.26 | 0.17 | 91 | 1009.6 |
| 20260506131013 | 45 | 77 | 0.0 | 2.6 | 0.04 | 0.26 | 0.17 | 90 | 1009.7 |
| 20260506130503 | 45 | 93 | 0.0 | 1.7 | 0.05 | 0.26 | 0.17 | 90 | 1009.8 |
| 20260506130007 | 45 | 84 | 0.0 | 1.7 | 0.06 | 0.26 | 0.17 | 90 | 1009.8 |
| 20260506125504 | 45 | 48 | 0.0 | 1.7 | 0.06 | 0.26 | 0.17 | 90 | 1009.9 |
| 20260506125006 | 45 | 74 | 0.0 | 1.7 | 0.06 | 0.25 | 0.16 | 91 | 1009.9 |
| 20260506124514 | 45 | 12 | 0.0 | 0.0 | 0.06 | 0.25 | 0.16 | 90 | 1009.8 |
| 20260506124007 | 45 | 51 | 0.0 | 0.0 | 0.05 | 0.24 | 0.15 | 90 | 1009.9 |
| 20260506123509 | 45 | 313 | 0.0 | 0.0 | 0.06 | 0.24 | 0.15 | 90 | 1009.9 |
| 20260506123017 | 45 | 313 | 0.0 | 0.0 | 0.05 | 0.23 | 0.14 | 90 | 1009.9 |
| 20260506122509 | 45 | 313 | 0.0 | 0.0 | 0.05 | 0.23 | 0.14 | 89 | 1009.9 |
| 20260506122007 | 45 | 313 | 0.0 | 0.0 | 0.05 | 0.22 | 0.13 | 89 | 1009.9 |
| 20260506121520 | 45 | 79 | 0.0 | 0.0 | 0.05 | 0.22 | 0.13 | 89 | 1009.8 |
| 20260506121009 | 45 | 79 | 0.0 | 1.7 | 0.06 | 0.22 | 0.13 | 90 | 1009.9 |
| 20260506120511 | 45 | 79 | 0.0 | 1.7 | 0.05 | 0.21 | 0.12 | 89 | 1010.0 |
| 20260506120026 | 46 | 83 | 0.0 | 0.0 | 0.04 | 0.20 | 0.11 | 90 | 1010.2 |
| 20260506115508 | 46 | 83 | 0.0 | 0.9 | 0.04 | 0.20 | 0.11 | 90 | 1010.3 |
| 20260506115004 | 46 | 83 | 0.0 | 2.6 | 0.03 | 0.19 | 0.10 | 90 | 1010.3 |
| 20260506114508 | 46 | 108 | 0.0 | 2.6 | 0.03 | 0.19 | 0.10 | 90 | 1010.2 |
| 20260506114006 | 46 | 97 | 0.0 | 0.0 | 0.03 | 0.19 | 0.10 | 90 | 1010.3 |
| 20260506113508 | 46 | 97 | 0.0 | 0.9 | 0.02 | 0.18 | 0.09 | 90 | 1010.4 |
| 20260506113015 | 46 | 97 | 0.0 | 0.9 | 0.02 | 0.18 | 0.09 | 89 | 1010.3 |
| 20260506112509 | 46 | 97 | 0.0 | 0.0 | 0.03 | 0.18 | 0.09 | 89 | 1010.2 |
| 20260506112008 | 46 | 97 | 0.0 | 0.0 | 0.02 | 0.17 | 0.08 | 89 | 1010.2 |
| 20260506111519 | 46 | 97 | 0.0 | 0.0 | 0.02 | 0.17 | 0.08 | 89 | 1009.9 |
| 20260506111006 | 46 | 97 | 0.0 | 0.0 | 0.01 | 0.16 | 0.07 | 89 | 1009.6 |
| 20260506110506 | 46 | 97 | 0.0 | 0.0 | 0.01 | 0.16 | 0.07 | 90 | 1009.4 |
| 20260506110026 | 46 | 97 | 0.0 | 0.0 | 0.01 | 0.16 | 0.07 | 90 | 1009.3 |
| 20260506105508 | 46 | 97 | 0.0 | 0.0 | 0.01 | 0.16 | 0.07 | 90 | 1009.3 |
| 20260506105008 | 47 | 97 | 0.0 | 0.9 | 0.01 | 0.16 | 0.07 | 90 | 1009.3 |
| 20260506104550 | 47 | 97 | 0.0 | 0.9 | 0.01 | 0.16 | 0.07 | 90 | 1009.5 |
| 20260506104009 | 47 | 97 | 0.0 | 0.9 | 0.01 | 0.16 | 0.07 | 90 | 1009.4 |
| 20260506103507 | 47 | 97 | 0.0 | 0.9 | 0.01 | 0.16 | 0.07 | 90 | 1009.4 |
| 20260506103012 | 47 | 188 | 0.0 | 0.0 | 0.02 | 0.16 | 0.07 | 90 | 1009.6 |
| 20260506102508 | 47 | 188 | 0.0 | 0.0 | 0.01 | 0.15 | 0.06 | 90 | 1009.5 |
| 20260506102009 | 47 | 188 | 0.0 | 0.0 | 0.01 | 0.15 | 0.06 | 90 | 1009.5 |
| 20260506101516 | 47 | 188 | 0.0 | 0.0 | 0.02 | 0.15 | 0.06 | 90 | 1009.2 |
| 20260506101007 | 47 | 188 | 0.0 | 0.0 | 0.02 | 0.15 | 0.06 | 89 | 1009.4 |
| 20260506100508 | 47 | 188 | 0.0 | 0.0 | 0.03 | 0.15 | 0.06 | 89 | 1009.6 |
| 20260506100021 | 47 | 188 | 0.0 | 0.9 | 0.04 | 0.15 | 0.06 | 89 | 1009.7 |
| 20260506095511 | 47 | 188 | 0.0 | 1.7 | 0.04 | 0.15 | 0.06 | 89 | 1009.3 |
| 20260506095009 | 47 | 145 | 0.0 | 1.7 | 0.04 | 0.15 | 0.06 | 88 | 1009.3 |
| 20260506094533 | 47 | 236 | 0.0 | 0.9 | 0.04 | 0.15 | 0.06 | 88 | 1009.1 |
| 20260506094012 | 47 | 246 | 0.0 | 0.9 | 0.04 | 0.15 | 0.06 | 88 | 1009.6 |
| 20260506093513 | 47 | 246 | 0.0 | 0.9 | 0.04 | 0.15 | 0.06 | 87 | 1009.5 |
| 20260506093028 | 47 | 246 | 0.0 | 0.9 | 0.03 | 0.14 | 0.05 | 87 | 1009.4 |
| 20260506092507 | 48 | 246 | 0.0 | 0.9 | 0.03 | 0.14 | 0.05 | 86 | 1009.3 |
| 20260506092005 | 48 | 240 | 0.0 | 0.9 | 0.03 | 0.14 | 0.05 | 85 | 1009.8 |
| 20260506091513 | 48 | 240 | 0.0 | 0.9 | 0.02 | 0.13 | 0.04 | 84 | 1009.6 |
| 20260506091010 | 49 | 133 | 0.0 | 0.9 | 0.03 | 0.13 | 0.04 | 83 | 1009.8 |
| 20260506090511 | 49 | 132 | 0.0 | 2.6 | 0.02 | 0.12 | 0.03 | 83 | 1009.5 |
| 20260506090018 | 49 | 91 | 0.0 | 2.6 | 0.01 | 0.11 | 0.02 | 82 | 1009.3 |
| 20260506085511 | 49 | 95 | 0.9 | 1.7 | 0.01 | 0.11 | 0.02 | 82 | 1009.7 |
| 20260506085008 | 49 | 264 | 0.0 | 0.0 | 0.01 | 0.11 | 0.02 | 83 | 1009.5 |
| 20260506084524 | 49 | 264 | 0.0 | 0.9 | 0.01 | 0.11 | 0.02 | 84 | 1009.7 |
| 20260506084012 | 50 | 264 | 0.0 | 0.9 | 0.01 | 0.11 | 0.02 | 84 | 1009.5 |
| 20260506083512 | 50 | 264 | 0.0 | 0.9 | 0.01 | 0.11 | 0.02 | 84 | 1009.4 |
| 20260506083037 | 50 | 264 | 0.0 | 0.9 | 0.01 | 0.11 | 0.02 | 83 | 1009.4 |
| 20260506082510 | 50 | 278 | 0.0 | 0.0 | 0.01 | 0.11 | 0.02 | 83 | 1009.6 |
| 20260506082007 | 51 | 278 | 0.0 | 0.0 | 0.01 | 0.11 | 0.02 | 83 | 1009.5 |
| 20260506081527 | 51 | 278 | 0.0 | 0.0 | 0.01 | 0.11 | 0.02 | 82 | 1009.4 |
| 20260506081010 | 51 | 278 | 0.0 | 0.0 | 0.00 | 0.10 | 0.01 | 81 | 1009.6 |
| 20260506080508 | 51 | 278 | 0.0 | 0.0 | 0.00 | 0.10 | 0.01 | 81 | 1009.5 |
| 20260506073512 | 52 | 86 | 0.0 | 1.7 | 0.00 | 0.10 | 0.01 | 80 | 1009.2 |
| 20260506073022 | 52 | 316 | 0.0 | 4.3 | 0.00 | 0.10 | 0.01 | 80 | 1009.0 |
| 20260506072512 | 52 | 70 | 0.0 | 4.3 | 0.00 | 0.10 | 0.01 | 81 | 1009.2 |
| 20260506072011 | 52 | 88 | 0.0 | 1.7 | 0.00 | 0.10 | 0.01 | 81 | 1009.6 |
| 20260506071526 | 52 | 57 | 0.0 | 1.7 | 0.00 | 0.10 | 0.01 | 82 | 1009.5 |
| 20260506071008 | 52 | 85 | 0.0 | 1.7 | 0.00 | 0.10 | 0.01 | 83 | 1009.1 |
| 20260506070503 | 52 | 65 | 0.0 | 0.9 | 0.00 | 0.10 | 0.01 | 86 | 1009.5 |
| 20260506062508 | 53 | 354 | 0.0 | 0.9 | 0.00 | 0.10 | 0.01 | 85 | 1009.0 |
| 20260506062006 | 53 | 354 | 0.0 | 2.6 | 0.00 | 0.10 | 0.01 | 85 | 1009.0 |
| 20260506061504 | 53 | 59 | 0.0 | 2.6 | 0.00 | 0.10 | 0.01 | 84 | 1008.9 |
| 20260506061007 | 53 | 131 | 0.0 | 0.9 | 0.00 | 0.10 | 0.01 | 84 | 1009.0 |
| 20260506060507 | 53 | 103 | 0.0 | 0.9 | 0.00 | 0.10 | 0.01 | 82 | 1009.3 |
| 20260506051003 | 53 | 104 | 0.0 | 0.9 | 0.01 | 0.10 | 0.01 | 86 | 1009.4 |
| 20260506050504 | 53 | 104 | 0.0 | 0.9 | 0.01 | 0.10 | 0.01 | 86 | 1009.4 |
| 20260506045003 | 53 | 103 | 0.0 | 0.9 | 0.01 | 0.10 | 0.01 | 86 | 1009.3 |
| 20260506044511 | 53 | 90 | 0.0 | 1.7 | 0.01 | 0.10 | 0.01 | 85 | 1009.4 |
| 20260506044006 | 53 | 90 | 0.0 | 1.7 | 0.01 | 0.10 | 0.01 | 85 | 1009.3 |
| 20260506043511 | 54 | 87 | 0.0 | 0.9 | 0.01 | 0.10 | 0.01 | 85 | 1008.7 |
| 20260506043017 | 54 | 87 | 0.0 | 0.9 | 0.00 | 0.09 | 0.00 | 84 | 1009.0 |
| 20260506042510 | 54 | 88 | 0.0 | 0.9 | 0.00 | 0.09 | 0.00 | 83 | 1009.0 |
| 20260506042008 | 54 | 87 | 0.0 | 0.9 | 0.00 | 0.09 | 0.00 | 83 | 1008.6 |
| 20260506041524 | 54 | 87 | 0.0 | 1.7 | 0.00 | 0.09 | 0.00 | 83 | 1008.5 |
| 20260506041007 | 55 | 74 | 0.0 | 1.7 | 0.00 | 0.09 | 0.00 | 82 | 1008.3 |
| 20260506040502 | 55 | 150 | 0.0 | 1.7 | 0.00 | 0.09 | 0.00 | 82 | 1008.5 |
| 20260506040004 | 55 | 108 | 0.0 | 1.7 | 0.00 | 0.09 | 0.00 | 80 | 1008.7 |
| 20260506035504 | 55 | 44 | 0.0 | 1.7 | 0.00 | 0.09 | 0.09 | 79 | 1008.5 |
| 20260506035006 | 56 | 131 | 0.0 | 0.9 | 0.00 | 0.09 | 0.09 | 79 | 1008.5 |
| 20260506034507 | 56 | 131 | 0.0 | 0.0 | 0.00 | 0.09 | 0.09 | 78 | 1008.2 |
| 20260506034006 | 56 | 131 | 0.0 | 0.9 | 0.01 | 0.09 | 0.09 | 77 | 1008.2 |
| 20260506033507 | 56 | 131 | 0.0 | 0.9 | 0.01 | 0.09 | 0.09 | 75 | 1008.1 |
| 20260506033015 | 56 | 131 | 0.0 | 0.0 | 0.01 | 0.09 | 0.09 | 74 | 1008.0 |
| 20260506032507 | 56 | 131 | 0.0 | 0.0 | 0.01 | 0.09 | 0.09 | 74 | 1008.0 |
| 20260506032007 | 56 | 131 | 0.0 | 0.0 | 0.01 | 0.09 | 0.09 | 74 | 1008.0 |
| 20260506031518 | 56 | 131 | 0.0 | 0.9 | 0.01 | 0.09 | 0.09 | 74 | 1008.1 |
| 20260506031008 | 56 | 131 | 0.0 | 0.9 | 0.01 | 0.09 | 0.09 | 73 | 1008.0 |
| 20260506030507 | 56 | 131 | 0.0 | 0.9 | 0.01 | 0.09 | 0.09 | 74 | 1007.8 |
| 20260506030024 | 57 | 131 | 0.0 | 0.9 | 0.01 | 0.09 | 0.09 | 73 | 1007.7 |
| 20260506025511 | 57 | 131 | 0.0 | 0.9 | 0.01 | 0.09 | 0.09 | 72 | 1007.8 |
| 20260506025004 | 58 | 131 | 0.0 | 1.7 | 0.01 | 0.09 | 0.09 | 73 | 1007.8 |
| 20260506024520 | 58 | 145 | 0.0 | 1.7 | 0.01 | 0.09 | 0.09 | 68 | 1007.8 |
| 20260506024006 | 58 | 321 | 0.0 | 1.7 | 0.00 | 0.08 | 0.08 | 65 | 1007.7 |
| 20260506023504 | 58 | 118 | 0.0 | 1.7 | 0.00 | 0.08 | 0.08 | 66 | 1007.6 |
| 20260506023014 | 58 | 307 | 0.0 | 0.9 | 0.00 | 0.08 | 0.08 | 67 | 1007.6 |
| 20260506022507 | 58 | 307 | 0.0 | 1.7 | 0.00 | 0.08 | 0.08 | 67 | 1007.5 |
| 20260506022007 | 58 | 306 | 0.0 | 1.7 | 0.00 | 0.08 | 0.08 | 67 | 1007.4 |
| 20260506021533 | 58 | 344 | 0.0 | 1.7 | 0.00 | 0.08 | 0.08 | 66 | 1007.6 |
| 20260506021010 | 59 | 340 | 0.0 | 1.7 | 0.00 | 0.08 | 0.08 | 67 | 1007.6 |
| 20260506020508 | 59 | 179 | 0.0 | 0.9 | 0.00 | 0.08 | 0.08 | 68 | 1007.5 |
| 20260506020022 | 59 | 252 | 0.0 | 0.9 | 0.00 | 0.08 | 0.08 | 68 | 1007.5 |
| 20260506015508 | 60 | 285 | 0.0 | 0.9 | 0.00 | 0.08 | 0.08 | 70 | 1007.5 |
| 20260506015008 | 60 | 288 | 0.0 | 0.9 | 0.00 | 0.08 | 0.08 | 71 | 1007.7 |
| 20260506014527 | 61 | 288 | 0.0 | 0.9 | 0.00 | 0.08 | 0.08 | 72 | 1007.8 |
| 20260506014008 | 61 | 288 | 0.0 | 0.9 | 0.00 | 0.08 | 0.08 | 72 | 1007.7 |
| 20260506013505 | 62 | 287 | 0.0 | 0.9 | 0.00 | 0.08 | 0.08 | 78 | 1007.6 |
| 20260506013010 | 62 | 232 | 0.0 | 0.9 | 0.00 | 0.08 | 0.08 | 79 | 1007.3 |
| 20260506012503 | 62 | 231 | 0.0 | 0.9 | 0.00 | 0.08 | 0.08 | 78 | 1006.9 |
| 20260506012003 | 63 | 227 | 0.0 | 0.9 | 0.00 | 0.08 | 0.08 | 77 | 1006.6 |
| 20260506011521 | 63 | 227 | 0.0 | 0.9 | 0.00 | 0.08 | 0.08 | 77 | 1006.3 |
| 20260506011007 | 63 | 227 | 0.0 | 1.7 | 0.00 | 0.08 | 0.08 | 76 | 1006.1 |
| 20260506010507 | 63 | 147 | 0.0 | 1.7 | 0.00 | 0.08 | 0.08 | 76 | 1006.0 |
| 20260506010019 | 63 | 130 | 0.0 | 1.7 | 0.00 | 0.08 | 0.08 | 75 | 1005.9 |
| 20260506005508 | 63 | 148 | 0.0 | 0.9 | 0.00 | 0.08 | 0.08 | 75 | 1005.7 |
| 20260506005013 | 64 | 152 | 0.0 | 2.6 | 0.00 | 0.08 | 0.08 | 75 | 1005.7 |
| 20260506004524 | 64 | 125 | 0.0 | 2.6 | 0.00 | 0.08 | 0.08 | 74 | 1005.6 |
| 20260506004010 | 63 | 153 | 0.9 | 1.7 | 0.00 | 0.08 | 0.08 | 74 | 1005.7 |
| 20260506003509 | 63 | 124 | 0.0 | 1.7 | 0.00 | 0.08 | 0.08 | 74 | 1005.6 |
| 20260506003025 | 63 | 125 | 0.0 | 1.7 | 0.00 | 0.08 | 0.08 | 73 | 1005.5 |
| 20260506002513 | 63 | 113 | 0.0 | 0.9 | 0.00 | 0.08 | 0.08 | 73 | 1005.4 |
| 20260506002006 | 63 | 113 | 0.0 | 0.9 | 0.00 | 0.08 | 0.08 | 73 | 1005.3 |
| 20260506001514 | 64 | 113 | 0.0 | 1.7 | 0.00 | 0.08 | 0.08 | 73 | 1005.1 |
| 20260506001006 | 64 | 103 | 0.0 | 2.6 | 0.00 | 0.08 | 0.08 | 73 | 1005.0 |
| 20260506000504 | 64 | 146 | 0.0 | 2.6 | 0.00 | 0.08 | 0.08 | 73 | 1004.8 |
| 20260506000016 | 64 | 204 | 0.0 | 0.0 | 0.00 | 0.08 | 0.08 | 73 | 1004.9 |
| 20260505235508 | 64 | 316 | 0.0 | 0.9 | 0.00 | 0.08 | 0.08 | 73 | 1005.0 |
| 20260505235010 | 64 | 316 | 0.0 | 2.6 | 0.00 | 0.08 | 0.08 | 71 | 1004.8 |
| 20260505234522 | 64 | 205 | 0.0 | 2.6 | 0.00 | 0.08 | 0.08 | 70 | 1004.9 |
| 20260505234008 | 64 | 150 | 0.0 | 1.7 | 0.00 | 0.08 | 0.08 | 71 | 1004.8 |
| 20260505233512 | 64 | 179 | 0.9 | 1.7 | 0.00 | 0.08 | 0.08 | 71 | 1004.7 |
| 20260505233023 | 63 | 136 | 0.0 | 0.9 | 0.00 | 0.08 | 0.08 | 75 | 1004.7 |
| 20260505232511 | 64 | 134 | 0.0 | 0.9 | 0.00 | 0.08 | 0.08 | 77 | 1004.8 |
| 20260505232009 | 63 | 300 | 0.0 | 0.9 | 0.00 | 0.08 | 0.08 | 77 | 1004.9 |